(14852) = 1989 SE = 1981 WQ5 = 1981 TN1 = 1985 SW5

Discovered at Kani on 1989-09-23 by Y. Mizuno and T. Furuta.

Orbit

Orbit type: Main Belt

Note: WebGL enabled browser required.

epoch2024-03-31.0
epoch JD2460400.5
perihelion date2022-03-12.67092
perihelion JD2459651.17093
argument of perihelion (°)348.38973
ascending node (°)7.80077
inclination (°)7.65557
eccentricity0.2933342
perihelion distance (AU)1.7983776
Tisserand w.r.t. Jupiter3.4
ΔV w.r.t. Earth (km/sec)8.7
semimajor axis (AU)2.5448770
mean anomaly (°)181.91833
mean daily motion (°/day)0.24277500
aphelion distance (AU)3.291
period (years)4.06
P-vector [x]0.99754698
P-vector [y]-0.04866186
P-vector [z]-0.05031937
Q-vector [x]0.06762452
Q-vector [y]0.85561188
Q-vector [z]0.51318148
absolute magnitude14.54
phase slope0.15
uncertainty0
referenceE2024-GJ9
observations used1404
oppositions23
arc length (days)15532
first opposition used1981
last opposition used2024
residual rms (arc-secs)0.71
perturbers coarse indicatorM-v
perturbers precise indicator003Ek
first observation date used1981-10-02.0
last observation date used2024-04-12.0
computer nameMPCLINUX
JD of orbit computation2456966.841259
perihelion JD uncertainty (days)7.8371E-05
argument of perihelion uncertainty (°)3.8040E-05
ascending node uncertainty (°)3.6530E-05
inclination uncertainty (°)7.7678E-06
eccentricity uncertainty 6.7811E-08
perihelion distance uncertainty (AU)1.7434E-07
Minimum Orbit Intersection Distances (in AU)
for orbit epoch: 2460400.5, reference: E2024-GJ9
Mercury1.42669
Venus1.07211
Earth0.7951
Mars0.40711
Jupiter2.14604
Saturn6.10928
Uranus15.1579
Neptune27.2403

Observations

1408 total observations over interval: 1981 10 02.99338 – 2024 03 17.512195
These data are available for download (format description).

Date (UT) J2000 RA J2000 Dec Magn Location Ref
1981 10 02.99338 02 58 50.42 +22 19 53.2 17.5   095 – Crimea-Nauchnyi MPC 9866
1981 11 24.83610 02 12 01.47 +23 27 57.0 17.5   095 – Crimea-Nauchnyi MPC 9888
1985 09 21.99628 01 54 39.70 +13 30 36.1 17.0   095 – Crimea-Nauchnyi MPC 14109
1989 09 23.58194 00 30 49.94 +01 54 12.1 16.0   403 – Kani MPC 15158
1989 09 23.59653 00 30 49.17 +01 54 14.2   403 – Kani MPC 15158
1989 09 24.59861 00 29 53.1 +01 56 53   403 – Kani MPC 15158
1989 09 28.26805 00 26 24.69 +02 06 34.5 16.9   809 – European Southern Observatory, La Silla MPC 16164
1989 09 28.28055 00 26 23.92 +02 06 35.5   809 – European Southern Observatory, La Silla MPC 16164
1989 09 28.29305 00 26 23.18 +02 06 36.9   809 – European Southern Observatory, La Silla MPC 16164
1989 10 04.56944 00 20 28.96 +02 22 33.3   403 – Kani MPC 15494
1989 10 04.58403 00 20 28.05 +02 22 37.5   403 – Kani MPC 15494
1989 10 07.58090 00 17 46.20 +02 30 36.0   403 – Kani MPC 15494
1989 10 07.59514 00 17 45.5 +02 30 41   403 – Kani MPC 15494
1993 08 14.40139 23 33 58.44 -12 30 35.7   675 – Palomar Mountain MPC 29402
1993 08 14.42899 23 33 57.73 -12 30 31.3   675 – Palomar Mountain MPC 29402
1993 09 21.23420 23 04 44.47 -11 10 35.5 16.8   675 – Palomar Mountain MPC 29402
1993 09 21.27031 23 04 42.55 -11 10 25.5   675 – Palomar Mountain MPC 29402
1993 10 12.07197 22 53 59.19 -09 05 19.8   801 – Oak Ridge Observatory MPC 22652
1993 10 12.09778 22 53 58.88 -09 05 08.3   801 – Oak Ridge Observatory MPC 22652
1993 11 11.98866 23 05 47.72 -04 16 16.9   801 – Oak Ridge Observatory MPC 22773
1993 11 12.00299 23 05 48.43 -04 16 07.4   801 – Oak Ridge Observatory MPC 22773
1997 09 02.49902 22 00 12.27 -22 22 51.0 16.4 V 566 – Haleakala-NEAT/GEODSS MPC 30549
1997 09 02.50862 22 00 11.73 -22 22 49.0 16.3 V 566 – Haleakala-NEAT/GEODSS MPC 30549
1997 09 02.51803 22 00 11.19 -22 22 46.6 16.4 V 566 – Haleakala-NEAT/GEODSS MPC 30549
1997 09 29.46359 21 47 24.69 -19 23 22.1 17.9 V 566 – Haleakala-NEAT/GEODSS MPS 90
1997 09 29.47305 21 47 24.66 -19 23 16.9 17.8 V 566 – Haleakala-NEAT/GEODSS MPS 90
1997 09 29.48328 21 47 24.66 -19 23 11.1 17.9 V 566 – Haleakala-NEAT/GEODSS MPS 90
1999 01 22.32973 09 35 42.39 +24 05 22.4 18.4 R 699 – Lowell Observatory-LONEOS MPS 59333
1999 01 22.35526 09 35 40.89 +24 05 28.6   699 – Lowell Observatory-LONEOS MPS 59333
1999 01 22.38131 09 35 39.36 +24 05 36.1   699 – Lowell Observatory-LONEOS MPS 59333
1999 02 10.21367 09 16 03.70 +25 14 05.0 19.0   704 – Lincoln Laboratory ETS, New Mexico MPS 3777
1999 02 10.23530 09 16 02.35 +25 14 07.8 19.6   704 – Lincoln Laboratory ETS, New Mexico MPS 3777
1999 02 10.25656 09 16 01.03 +25 14 12.4 19.5   704 – Lincoln Laboratory ETS, New Mexico MPS 3777
1999 02 10.27822 09 15 59.71 +25 14 17.0 19.1   704 – Lincoln Laboratory ETS, New Mexico MPS 3777
1999 02 10.29922 09 15 58.06 +25 14 21.1 19.8   704 – Lincoln Laboratory ETS, New Mexico MPS 3777
1999 02 13.30091 09 12 50.54 +25 21 38.8 18.4   704 – Lincoln Laboratory ETS, New Mexico MPS 3777
1999 02 13.31483 09 12 49.71 +25 21 40.4 19.0   704 – Lincoln Laboratory ETS, New Mexico MPS 3777
1999 02 13.32873 09 12 48.89 +25 21 42.7 19.0   704 – Lincoln Laboratory ETS, New Mexico MPS 3777
1999 02 13.34262 09 12 47.66 +25 21 44.7 19.3   704 – Lincoln Laboratory ETS, New Mexico MPS 3777
1999 02 20.28738 09 05 55.33 +25 33 52.9 18.8 R 699 – Lowell Observatory-LONEOS MPS 59333
1999 02 20.30780 09 05 54.15 +25 33 53.0   699 – Lowell Observatory-LONEOS MPS 59333
1999 02 20.32822 09 05 52.99 +25 33 53.2   699 – Lowell Observatory-LONEOS MPS 59333
2000 04 02.33916 13 05 24.41 -08 45 27.8 18.5 R 699 – Lowell Observatory-LONEOS MPS 11731
2000 04 02.36290 13 05 23.08 -08 45 20.9   699 – Lowell Observatory-LONEOS MPS 11731
2000 04 02.38663 13 05 21.70 -08 45 16.3   699 – Lowell Observatory-LONEOS MPS 11731
2000 04 02.41040 13 05 20.32 -08 45 11.0   699 – Lowell Observatory-LONEOS MPS 11731
2000 04 05.28054 13 02 41.95 -08 34 27.2 18.5   704 – Lincoln Laboratory ETS, New Mexico MPS 11731
2000 04 05.29895 13 02 40.88 -08 34 22.4 18.6   704 – Lincoln Laboratory ETS, New Mexico MPS 11731
2000 04 05.31338 13 02 40.13 -08 34 19.5 18.7   704 – Lincoln Laboratory ETS, New Mexico MPS 11731
2000 04 05.32781 13 02 39.31 -08 34 16.0 18.7   704 – Lincoln Laboratory ETS, New Mexico MPS 11731
2000 04 05.34224 13 02 38.52 -08 34 12.6 19.7   704 – Lincoln Laboratory ETS, New Mexico MPS 11731
2000 04 06.27572 13 01 46.75 -08 30 38.6 18.6   704 – Lincoln Laboratory ETS, New Mexico MPS 11731
2000 04 06.27609 13 01 46.75 -08 30 39.5 18.7   704 – Lincoln Laboratory ETS, New Mexico MPS 11731
2000 04 06.28971 13 01 45.90 -08 30 36.4 18.5   704 – Lincoln Laboratory ETS, New Mexico MPS 11731
2000 04 06.29008 13 01 45.92 -08 30 35.7 18.6   704 – Lincoln Laboratory ETS, New Mexico MPS 11731
2000 04 06.30371 13 01 45.12 -08 30 32.8 18.7   704 – Lincoln Laboratory ETS, New Mexico MPS 11731
2000 04 06.30408 13 01 45.17 -08 30 32.6 18.4   704 – Lincoln Laboratory ETS, New Mexico MPS 11731
2000 04 06.31772 13 01 44.32 -08 30 30.0 18.5   704 – Lincoln Laboratory ETS, New Mexico MPS 11731
2000 04 06.31809 13 01 44.33 -08 30 29.6 18.4   704 – Lincoln Laboratory ETS, New Mexico MPS 11731
2000 04 06.33173 13 01 43.52 -08 30 27.1 18.6   704 – Lincoln Laboratory ETS, New Mexico MPS 11731
2000 04 06.33210 13 01 43.54 -08 30 26.5 18.3   704 – Lincoln Laboratory ETS, New Mexico MPS 11731
2000 04 29.16240 12 41 57.56 -07 04 47.9 19.1   704 – Lincoln Laboratory ETS, New Mexico MPS 13446
2000 04 29.17446 12 41 56.92 -07 04 45.3 19.2   704 – Lincoln Laboratory ETS, New Mexico MPS 13446
2000 04 29.18654 12 41 56.49 -07 04 42.3 18.9   704 – Lincoln Laboratory ETS, New Mexico MPS 13446
2000 04 29.19862 12 41 55.95 -07 04 40.8 19.1   704 – Lincoln Laboratory ETS, New Mexico MPS 13446
2000 04 29.21071 12 41 55.36 -07 04 37.7 19.4   704 – Lincoln Laboratory ETS, New Mexico MPS 13446
2000 05 05.20962 12 37 47.06 -06 46 17.7 18.6   704 – Lincoln Laboratory ETS, New Mexico MPS 13446
2000 05 05.22297 12 37 46.54 -06 46 16.1 19.0   704 – Lincoln Laboratory ETS, New Mexico MPS 13446
2000 05 05.23570 12 37 46.04 -06 46 13.3 19.1   704 – Lincoln Laboratory ETS, New Mexico MPS 13446
2000 05 05.24794 12 37 45.59 -06 46 11.6 19.2   704 – Lincoln Laboratory ETS, New Mexico MPS 13446
2001 07 16.31352 21 17 42.81 -30 08 35.1 16.2 R 860 – Valinhos MPS 32661
2001 07 16.33361 21 17 42.04 -30 08 39.2 16.3 R 860 – Valinhos MPS 32661
2001 07 16.34949 21 17 41.42 -30 08 42.0 16.4 R 860 – Valinhos MPS 32661
2001 07 18.39001 21 16 21.74 -30 16 25.5 16.0   644 – Palomar Mountain/NEAT MPS 32661
2001 07 18.40037 21 16 21.27 -30 16 27.8 15.9   644 – Palomar Mountain/NEAT MPS 32661
2001 07 18.41144 21 16 20.78 -30 16 30.1 15.9   644 – Palomar Mountain/NEAT MPS 32661
2001 07 22.28556 21 13 27.61 -30 29 51.6 16.0   644 – Palomar Mountain/NEAT MPS 32661
2001 07 22.29617 21 13 27.08 -30 29 53.8 16.0   644 – Palomar Mountain/NEAT MPS 32661
2001 07 22.30709 21 13 26.52 -30 29 56.0 16.2   644 – Palomar Mountain/NEAT MPS 32661
2001 08 13.22747 20 52 21.54 -30 54 04.8 16.5   644 – Palomar Mountain/NEAT MPS 33039
2001 08 13.23883 20 52 20.83 -30 54 03.9 16.1   644 – Palomar Mountain/NEAT MPS 33039
2001 08 13.25019 20 52 20.11 -30 54 02.9 16.2   644 – Palomar Mountain/NEAT MPS 33039
2001 09 11.19728 20 35 20.31 -28 22 40.5 16.7   704 – Lincoln Laboratory ETS, New Mexico MPS 35161
2001 09 11.21239 20 35 20.23 -28 22 33.8 16.6   704 – Lincoln Laboratory ETS, New Mexico MPS 35161
2001 09 11.22734 20 35 20.14 -28 22 26.3 16.6   704 – Lincoln Laboratory ETS, New Mexico MPS 35161
2001 09 11.24223 20 35 20.04 -28 22 18.6 16.9   704 – Lincoln Laboratory ETS, New Mexico MPS 35161
2001 09 11.25715 20 35 19.94 -28 22 10.9 16.6   704 – Lincoln Laboratory ETS, New Mexico MPS 35161
2001 09 19.11536 20 36 13.14 -27 12 43.4 17.0   704 – Lincoln Laboratory ETS, New Mexico MPS 37148
2001 09 19.12930 20 36 13.35 -27 12 35.4 17.4   704 – Lincoln Laboratory ETS, New Mexico MPS 37148
2001 09 19.14328 20 36 13.53 -27 12 27.8 17.1   704 – Lincoln Laboratory ETS, New Mexico MPS 37148
2001 09 19.15796 20 36 13.77 -27 12 19.7 17.3   704 – Lincoln Laboratory ETS, New Mexico MPS 37148
